This demonstration page uses our WeatherBlox Daily Observations layout. Learn more.

Left ArrowRight Arrow

Hourly Observations for May 5, 2017

Temp ( °F °C ) Dew Point ( °F °C ) Humidity (%) Winds ( mph kmh ) Pressure ( in mb ) Visibility ( mi km ) Precip ( " mm )
12:48 am 00:48 Mostly Cloudy 55 13 55 13 100 100 SW 7 11 29.59 1002 10 16 0.00 0.00
12:53 am 00:53 Mostly Cloudy 56 13.3 55 12.8 97 97 SW 7 11 29.57 1001 10 16 0.01 0.25
1:28 am 01:28 Partly Cloudy 55 13 54 12 94 94 SW 8 13 29.59 1002 10 16 0.00 0.00
1:53 am 01:53 Mostly Clear 54 12.2 54 12.2 100 100 SW 7 11 29.56 1001 10 16 0.00 0.00
2:08 am 02:08 Mostly Cloudy 55 13 54 12 94 94 SW 8 13 29.59 1002 10 16 0.00 0.00
2:53 am 02:53 Mostly Cloudy 53 11.7 51 10.6 93 93 WSW 10 17 29.57 1001 10 16 0.00 0.00
3:27 am 03:27 Cloudy 52 11.1 51 10.6 97 97 WSW 6 9 29.59 1002 10 16 0.00 0.00
3:49 am 03:49 Cloudy 54 12 50 10 88 88 SW 8 13 29.56 1001 10 16 0.00 0.00
3:53 am 03:53 Cloudy 52 11.1 50 10 93 93 SW 10 17 29.56 1001 10 16 0.00 0.00
4:10 am 04:10 Cloudy 52 11 50 10 94 94 SW 7 11 29.59 1002 10 16 0.00 0.00
4:30 am 04:30 Cloudy with Light Rain 52 11 50 10 94 94 WSW 9 15 29.59 1002 5 8 0.00 0.00
4:53 am 04:53 Cloudy 50 10 49 9.4 96 96 WSW 8 13 29.57 1001 10 16 0.00 0.03
5:53 am 05:53 Cloudy 50 10 48 8.9 93 93 SW 8 13 29.56 1001 10 16 0.00 0.00
6:25 am 06:25 Cloudy 49 9.4 48 8.9 97 97 SW 8 13 29.56 1001 10 16 0.00 0.00
6:48 am 06:48 Cloudy 48 9 46 8 94 94 SW 5 7 29.56 1001 10 16 0.00 0.00
6:53 am 06:53 Cloudy 49 9.4 47 8.3 93 93 WSW 3 6 29.55 1001 10 16 0.00 0.00
7:03 am 07:03 Cloudy 48 9 46 8 94 94 SW 6 9 29.56 1001 8 13 0.00 0.00
7:53 am 07:53 Cloudy 49 9.4 47 8.3 93 93 SSW 8 13 29.57 1002 8 13 0.00 0.00
8:00 am 08:00 Cloudy 48 9 46 8 94 94 SSW 7 11 29.59 1002 10 16 0.00 0.00
8:14 am 08:14 Cloudy 48 9 48 9 100 100 SSW 6 9 29.59 1002 9 14 0.00 0.00
8:30 am 08:30 Cloudy with Light Rain 48 9 48 9 100 100 SSW 8 13 29.59 1002 5 8 0.00 0.00
8:53 am 08:53 Cloudy with Light Rain 49 9.4 48 8.9 97 97 SSW 7 11 29.59 1002 3 5 0.01 0.25
9:00 am 09:00 Cloudy with Light Rain 48 9 48 9 100 100 SW 6 9 29.59 1002 3 5 0.00 0.00
9:53 am 09:53 Cloudy with Mist and Fog 50 10 49 9.4 96 96 SW 8 13 29.57 1001 3 5 0.02 0.51
10:00 am 10:00 Cloudy with Mist and Fog 50 10 50 10 100 100 SW 8 13 29.59 1002 4 6 0.00 0.00
10:43 am 10:43 Cloudy with Light Rain 50 10 50 10 100 100 SW 8 13 29.59 1002 8 13 0.00 0.03
10:53 am 10:53 Cloudy with Light Rain 50 10 50 10 100 100 SW 9 15 29.58 1002 6 10 0.00 0.03
11:07 am 11:07 Cloudy with Light Rain 51 10.6 50 10 96 96 SW 6 9 29.59 1002 7 11 0.01 0.25
11:17 am 11:17 Cloudy 51 10.6 50 10 96 96 SW 6 9 29.59 1002 10 16 0.01 0.25
11:45 am 11:45 Cloudy 52 11.1 51 10.6 97 97 SW 9 15 29.59 1002 10 16 0.01 0.25
11:53 am 11:53 Cloudy 53 11.7 51 10.6 93 93 WSW 7 11 29.58 1002 10 16 0.01 0.25
12:53 pm 12:53 Cloudy 53 11.7 51 10.6 93 93 SSW 8 13 29.59 1002 10 16 0.00 0.03
1:53 pm 13:53 Cloudy with Light Rain 54 12.2 52 11.1 93 93 WSW 8 13 29.60 1003 9 14 0.04 1.02
2:38 pm 14:38 Cloudy with Light Rain 54 12 50 10 88 88 WSW 15 24 29.62 1003 10 16 0.00 0.00
2:53 pm 14:53 Cloudy with Light Rain 53 11.7 51 10.6 93 93 SW 12 19 29.61 1003 10 16 0.01 0.25
3:53 pm 15:53 Cloudy 53 11.7 49 9.4 86 86 SW 10 17 29.62 1003 10 16 0.00 0.03
4:00 pm 16:00 Cloudy 54 12 50 10 88 88 SW 10 17 29.62 1003 10 16 0.00 0.00
4:18 pm 16:18 Cloudy 54 12 48 9 82 82 WSW 12 19 29.62 1003 10 16 0.00 0.00
4:53 pm 16:53 Cloudy 53 11.7 49 9.4 86 86 SSW 9 15 29.62 1003 10 16 0.00 0.00
5:53 pm 17:53 Cloudy 53 11.7 47 8.3 80 80 WSW 14 22 29.63 1003 10 16 0.00 0.00
6:53 pm 18:53 Cloudy 51 10.6 50 10 96 96 W 6 9 29.64 1004 10 16 0.01 0.25
7:22 pm 19:22 Cloudy 52 11 50 10 94 94 W 10 17 29.65 1004 10 16 0.00 0.00
7:34 pm 19:34 Cloudy 54 12 48 9 82 82 W 8 13 29.65 1004 10 16 0.00 0.00
7:53 pm 19:53 Cloudy 52 11.1 48 8.9 86 86 W 13 20 29.65 1004 10 16 0.00 0.00
8:36 pm 20:36 Partly Cloudy 51 10.6 47 8.3 86 86 W 12 19 29.68 1005 10 16 0.00 0.03
8:53 pm 20:53 Partly Cloudy 51 10.6 47 8.3 86 86 WNW 13 20 29.68 1005 10 16 0.00 0.03
9:53 pm 21:53 Cloudy 50 10 46 7.8 86 86 W 10 17 29.70 1006 10 16 0.00 0.00
10:53 pm 22:53 Mostly Cloudy 50 10 45 7.2 83 83 WNW 12 19 29.70 1006 10 16 0.00 0.00
11:53 pm 23:53 Mostly Cloudy 50 10 43 6.1 77 77 NW 16 26 29.72 1006 10 16 0.00 0.00

Powered by AerisWeather